Regional Weather Roundup
Issued by NWS

Home | Current Version | Previous Version | Graphics & Text | Print | Product List | Glossary On
Versions: 1 2 3 4 5 6 7 8 9 10 11 12 13 14 15 16 17 18 19 20 21 22 23 24 25 26 27 28 29 30 31 32 33 34 35 36 37 38 39 40 41 42 43 44 45 46 47 48 49 50
000
ASUS45 KBOU 030110
RWRCO

WEATHER ROUNDUP FOR COLORADO
NATIONAL WEATHER SERVICE PUEBLO CO
700 PM MDT SUN AUG 02 2015

NOTE: "FAIR" INDICATES FEW OR NO CLOUDS BELOW 12000 FEET WITH NO
SIGNIFICANT WEATHER AND/OR OBSTRUCTIONS TO VISIBILITY.

COZ001>005-013-030-031-030200-
...NORTHWEST COLORADO...

CITY           SKY/WX    TMP DP  RH WIND       PRES   REMARKS
CRAIG          CLOUDY    83  45  26 SW12      30.06F
HAYDEN         CLOUDY    64  52  63 E26       30.16R THUNDER
MEEKER         CLOUDY    73  48  41 SE21G31   30.14R
MOUNT WERNER   NOT AVBL
STEAMBOAT SPGS CLOUDY    70  44  39 W16G25    30.16F
WALDEN         PTSUNNY   70  36  28 S8        30.26S
$$

COZ006>008-011-030200-
...WEST CENTRAL VALLEYS...

CITY           SKY/WX    TMP DP  RH WIND       PRES   REMARKS
GRAND JUNCTION LGT RAIN  72  60  66 S7        30.06R
MONTROSE       LGT RAIN  64  60  87 E3        30.17F
EAGLE          CLOUDY    70  46  43 W16G30    30.22R
RIFLE          TSTM      63  59  87 NE9       30.19R FOG
DELTA          NOT AVBL
NUCLA          FAIR      63  59  88 NE7       30.18F
$$

COZ017>023-064>068-030200-
...SOUTHWEST COLORADO...

CITY           SKY/WX    TMP DP  RH WIND       PRES   REMARKS
DURANGO        PTSUNNY   60  54  80 NE18      30.20R
CORTEZ         SUNNY     72  58  61 N3        30.12S
PAGOSA SPRINGS CLOUDY    60  58  95 W6        30.29R
TELLURIDE      LGT RAIN  56  55  97 S3        30.37F
WOLF CREEK PAS NOT AVBL
$$

COZ009-010-012-014-032>034-037-058>063-030200-
...CENTRAL COLORADO...

CITY           SKY/WX    TMP DP  RH WIND       PRES   REMARKS
ASPEN          LGT RAIN  56  53  90 SE5       30.32F
BUENA VISTA    PTSUNNY   66  47  50 N3        30.30S
COPPER MTN     CLOUDY    54  36  50 E6G17     30.59F
BERTHOUD PASS  FAIR      43  32  65 E17G28    30.65S
COTTONWOOD PAS CLOUDY    59  43  55 W7        30.43F
GUNNISON       CLOUDY    61  52  72 NW3       30.32S
KREMMLING      CLOUDY    72  37  28 S16       30.22F
LEADVILLE      CLOUDY    53  43  68 N6        30.43F
MONARCH PASS   CLOUDY    46  41  81 SE9       30.68R
SALIDA         CLOUDY    66  54  65 N3        30.35R
NIWOT RIDGE    NOT AVBL
SUNLIGHT       LGT RAIN  50  46  87 SE8       30.53S
WILKERSON PASS CLOUDY    50  41  71 E7        30.57F
$$

COZ069>075-030200-
...SAN LUIS VALLEY/SANGRE DE CRISTO MOUNTAINS...

CITY           SKY/WX    TMP DP  RH WIND       PRES   REMARKS
ALAMOSA        CLOUDY    65  51  60 S6        30.27S
LA VETA PASS   DRIZZLE   52  46  82 MISG      30.46F
SAGUACHE       RAIN      59  52  77 NW6       30.31R
$$

COZ035-036-038>040-030200-
...NORTHERN COLORADO FRONT RANGE...

CITY           SKY/WX    TMP DP  RH WIND       PRES   REMARKS
DENVER INTL AP CLOUDY    77  46  33 SW13      30.07F
DMNS CITY PARK NOT AVBL
AURORA         PTSUNNY   72  49  44 SW17      30.07F
FRONT RANGE AP PTSUNNY   75  45  33 SW7       30.09F
ERIE MUNI ARPT FAIR      76  47  36 SW9G17    30.07S
BOULDER MUN AP FAIR      77  45  31 S13       30.07F
CENTENNIAL     CLOUDY    73  47  39 S14G25    30.12F
BROOMFIELD     CLOUDY    73  48  40 S14       30.11F
LOVELAND       MOSUNNY   81  50  34 S18       30.03R
LONGMONT       FAIR      80  46  29 S15G21    30.07S
$$

COZ041-046-047-076>085-087-088-030200-
...PIKES PEAK/PALMER DIVIDE AND SOUTHERN FOOTHILLS...

CITY           SKY/WX    TMP DP  RH WIND       PRES   REMARKS
COLO. SPRINGS  CLOUDY    76  46  34 N16       30.15S
A. F. ACADEMY  CLOUDY    71  47  42 N14       30.19S
ELLICOTT       FAIR     N/A N/A N/A S10       30.12S
FALCON         CLOUDY    70  47  43 N15G22    30.23R
FORT CARSON    CLOUDY    74  50  42 N16G23    30.12R
LIMON          PTSUNNY   82  41  23 SE10      30.08R
MONUMENT HILL  NOT AVBL
TRINIDAD       LGT RAIN  65  57  75 S21       30.14F
$$

COZ042>045-048>051-090-091-030200-
...NORTHEAST COLORADO...

CITY           SKY/WX    TMP DP  RH WIND       PRES   REMARKS
GREELEY ARPT   PTSUNNY   82  50  32 SW18G24   30.02F
AKRON          PTSUNNY   82  49  31 E13       30.02F
BURLINGTON     PTSUNNY   84  55  36 S6        30.00R
WRAY           CLOUDY    89  46  22 CALM      29.96R
STERLING       FAIR      88  50  27 SE8       29.95S
HOLYOKE        FAIR      82  55  39 E14       29.96S
FORT MORGAN    MOCLDY    82  46  29 W8        30.02R
$$

COZ086-089-092>099-030200-
...SOUTHEAST COLORADO...

CITY           SKY/WX    TMP DP  RH WIND       PRES   REMARKS
PUEBLO         CLOUDY    90  44  20 SE16      29.99S
LA JUNTA       PTSUNNY   90  46  21 SE15      29.98R
LAMAR          MOSUNNY   89  51  27 SE13      29.95R
SPRINGFIELD      N/A     81  62  52 SE9       30.02R
$$




USA.gov is the U.S. government's official web portal to all federal, state and local government web resources and services.